SL-8 DEB

基本信息
目录编号:
57165
目录名称:
SL-8 DEB
国际标识:
1983-103C
轨道中心:
EARTH
物体状态:
在轨
发射日期:
1983-10-12 UTC
轨道信息
数据来源: 国际轨道数据
星历时间: 2026-09-10T13:57:47+0800
半长轴: 7148.537km
偏心率: 0.00225
轨道倾角: 74.049°
近地点辐角: 296.201°
升交点赤经: 209.405°
平近点角: 63.683°
近地点: 754.315km
远地点: 786.485km
周期: 100.250分钟
每日圈数: 14.364056
详细信息
发射场:
PKMTR
轨道高度:
LEO
数据来源:
AOE Integration Group
参考系:
TEME
时间系统:
UTC
历元类型:
SGP4
2D轨道图
3D轨道图
轨道高度分析图
轨道倾角分析图
轨道综合分析图
查看轨道综合分析图